Weather History for KDEN - August, 2013

Change the Weather History Date:

Tuesday, August 27, 2013

  Actual Average Record
Temperature  
Mean Temperature 79 °F 70 °F  
Max Temperature 92 °F 85 °F 98 °F (1994)
Min Temperature 65 °F 56 °F 48 °F (1964)
Degree Days  
Heating Degree Days 0 1  
Month to date heating degree days 0 1  
Since 1 June heating degree days 29 69  
Since 1 July heating degree days 0 7  
Cooling Degree Days 14 6  
Month to date cooling degree days 251 222  
Year to date cooling degree days 809 666  
Since 1 June cooling degree days 767 644  
Growing Degree Days 28 (Base 50)    
Moisture  
Dew Point 53 °F    
Average Humidity 47    
Maximum Humidity 68    
Minimum Humidity 26    
Precipitation  
Precipitation 0.00 in 0.04 in 1.39 in (1955)
Month to date precipitation 2.78 1.54  
Year to date precipitation 10.75 11.21  
Snow  
Snow 0.00 in - - ()
Month to date snowfall 0  
Since 1 June snowfall 0  
Since 1 July snowfall 0  
Snow Depth 0.00 in    
Sea Level Pressure  
Sea Level Pressure 29.89 in    
Wind  
Wind Speed 7 mph (SSW)    
Max Wind Speed 15 mph    
Max Gust Speed 24 mph    
Visibility 10 miles    
Events      
T = Trace of Precipitation, MM = Missing Value Source: NWS Daily Summary

Daily Weather History Graph

Daily Weather History Graph

Search for Another Location

Airport or City:

Trip Planner

Search our weather history database for the weather conditions in past years. The results will help you decide how hot, cold, wet, or windy it might be!

Date:

Astronomy

Aug. 27, 2013 Rise Set
Actual Time 6:22 AM MDT 7:37 PM MDT
Civil Twilight 5:54 AM MDT 8:05 PM MDT
Nautical Twilight 5:20 AM MDT 8:38 PM MDT
Astronomical Twilight 4:45 AM MDT 9:13 PM MDT
Moon 11:33 PM MDT (8/27) 1:21 PM MDT (8/27)
Length of Visible Light 14h 11m
Length of Day
13h 15m
Waning Gibbous, 56% of the Moon is Illuminated
Aug 27
Waning Gibbous
Aug 28
Last Quarter
Sep 5
New
Sep 12
First Quarter
Sep 19
Full

Hourly Weather History & Observations

Time (MDT) Temp. Heat Index Dew Point Humidity Pressure Visibility Wind Dir Wind Speed Gust Speed Precip Events Conditions
12:53 AM 72.0 °F - 54.0 °F 53% 29.91 in 10.0 mi NNW 8.1 mph - N/A   Mostly Cloudy
1:53 AM 70.0 °F - 55.0 °F 59% 29.91 in 10.0 mi West 9.2 mph - N/A   Mostly Cloudy
2:53 AM 69.1 °F - 54.0 °F 58% 29.91 in 10.0 mi WSW 8.1 mph - N/A   Mostly Cloudy
3:53 AM 66.9 °F - 55.9 °F 68% 29.91 in 10.0 mi SW 9.2 mph - N/A   Mostly Cloudy
4:53 AM 66.0 °F - 55.0 °F 68% 29.91 in 10.0 mi SW 10.4 mph - N/A   Scattered Clouds
5:53 AM 66.0 °F - 55.0 °F 68% 29.92 in 10.0 mi SW 10.4 mph - N/A   Partly Cloudy
6:53 AM 66.0 °F - 55.0 °F 68% 29.96 in 10.0 mi SW 11.5 mph - N/A   Partly Cloudy
7:53 AM 70.0 °F - 55.0 °F 59% 29.96 in 10.0 mi WSW 10.4 mph - N/A   Partly Cloudy
8:53 AM 75.9 °F - 54.0 °F 46% 29.95 in 10.0 mi WSW 8.1 mph - N/A   Partly Cloudy
9:53 AM 81.0 °F 80.5 °F 54.0 °F 39% 29.94 in 10.0 mi West 4.6 mph - N/A   Partly Cloudy
10:53 AM 84.0 °F 82.5 °F 53.1 °F 34% 29.94 in 10.0 mi East 3.5 mph - N/A   Scattered Clouds
11:53 AM 86.0 °F 84.0 °F 53.1 °F 32% 29.92 in 10.0 mi Calm Calm - N/A   Scattered Clouds
12:53 PM 87.1 °F - 52.0 °F 30% 29.90 in 10.0 mi Calm Calm - N/A   Scattered Clouds
1:53 PM 89.1 °F - 52.0 °F 28% 29.88 in 10.0 mi East 10.4 mph 17.3 mph N/A   Scattered Clouds
2:53 PM 91.0 °F - 51.1 °F 25% 29.86 in 10.0 mi East 6.9 mph 17.3 mph N/A   Scattered Clouds
3:53 PM 89.1 °F - 51.1 °F 27% 29.86 in 10.0 mi NE 9.2 mph - N/A   Mostly Cloudy
4:53 PM 89.1 °F - 50.0 °F 26% 29.83 in 10.0 mi ESE 9.2 mph - N/A   Mostly Cloudy
5:53 PM 84.9 °F - 52.0 °F 32% 29.84 in 10.0 mi SE 6.9 mph - N/A   Mostly Cloudy
6:53 PM 84.0 °F 82.6 °F 54.0 °F 35% 29.83 in 10.0 mi SE 4.6 mph - N/A   Scattered Clouds
7:53 PM 82.9 °F - 50.0 °F 32% 29.83 in 10.0 mi Calm Calm - N/A   Scattered Clouds
8:53 PM 78.1 °F - 51.1 °F 39% 29.84 in 10.0 mi SSE 5.8 mph - N/A   Scattered Clouds
9:53 PM 79.0 °F - 52.0 °F 39% 29.84 in 10.0 mi WSW 10.4 mph - N/A   Scattered Clouds
10:53 PM 75.9 °F - 53.1 °F 45% 29.85 in 10.0 mi WSW 6.9 mph - N/A   Scattered Clouds
11:53 PM 72.0 °F - 54.0 °F 53% 29.86 in 10.0 mi SSW 5.8 mph - N/A   Partly Cloudy